Weather in Cvikov

Czech Republic     50°46′36″N   14°38′00″E
temp.,
°C
wind,
m/s
gust,
m/s
humid.,
%
clouds,
%
prec.,
mm/h
press.,
hPa
HPBL,
m
17 may, mon
mon1723:00+7sse22947 0.1 100428
02:00+6sse229586 0.1 100433
05:00+7s119969 0.4 100431
08:00+9s2295100 0.4 1005246
11:00+12sw3481100 0.6 1005955
14:00+12wsw3580100 2.4 1005922
17:00+11w4786100 1.1 1005663
20:00+10wnw379260 2.3 1007280
18 may, tue
tue1823:00+6wsw22955 0.3 100917
02:00+5ssw229711 0.3 101029
05:00+6ssw1296100 0.0 101043
08:00+8w3995100 0.4 1011914
11:00+12wnw476947 0.2 10111443
14:00+14wnw575897 0.4 10101752
17:00+13wnw567499 1.4 10111143
20:00+9wnw2492100 2.8 1012126
19 may, wed
wed1923:00+6w119670 0.1 101411
02:00+5w11966 0.3 101411
05:00+6ssw1597100 0.1 1014235
08:00+7w2897100 0.4 1015626
11:00+8wnw2694100 2.8 1016781
14:00+8wnw259126 4.1 1016486
17:00+11nw467576 0.9 10151231
20:00+8nw229116 2.1 101623
20 may, thu
thu2023:00+5nw11945 0.1 101710
02:00+4w01943 0.1 101810
05:00+4nw11942 0.0 101910
08:00+9nw248723 0.0 1020391
11:00+9nw3682100 0.4 1021669
14:00+12nw466278 0.7 10201519
17:00+13nw475144 0.3 10201880
20:00+9nw258823 0.8 1022172
21 may, fri
fri2123:00+5w11955 0.0 102310
02:00+4sw119614 0.0 102310
05:00+4s11965 0.0 102213
08:00+9s22841 0.0 1022285
11:00+14wsw345287 0.0 10191698
14:00+15sw4452100 0.0 10171516
17:00+16ssw4652100 0.1 10151613
20:00+12sse247199 0.1 101393